[[{"header":{"parameterUnit":"m.s-1","parameterCategory":1,"la1":30.2991,"la2":30.254,"lo1":-89.0895,"lo2":-89.0444,"dy":0.0017,"dx":0.0017,"nx":28,"ny":28,"refTime":"2024-03-01T09:00:00:Z","depth":0,"parameterNumber":2,"parameterNumberName":"U-component_of_WINDS"},"data":[0,0,0,0,0,0,0,0,0,0,0,0,0,0,0,0,0,0,0,0,0,0,0,0,0,0,0,0,0,0,0,0,0,0,0,0,0,0,0,0,0,0,0,0,0,0,0,0,0,0,0,0,0,0,0,0,0,0,-7.1724,-7.1725,0,-7.1832,-7.1833,-7.1835,-7.1742,-7.1739,-7.1735,-7.1731,-7.1838,-7.1844,-7.185,0,0,0,0,0,0,0,0,0,0,0,0,0,-7.1434,-7.144,-7.1724,-7.1725,-7.1727,-7.1832,-7.1833,-7.1835,-7.1743,-7.1738,-7.1734,-7.1729,-7.1836,-7.1843,-7.1851,0,0,0,0,0,0,0,0,0,0,0,0,0,-7.1553,-7.1441,-7.1724,-7.1694,-7.1692,-7.1832,-7.1833,-7.1835,-7.1744,-7.1738,-7.1733,-7.1727,-7.1833,-7.1842,-7.1852,-7.2026,0,0,-7.1881,-7.1885,0,0,0,0,0,0,0,0,-7.1546,-7.1563,-7.1697,-7.1696,-7.1694,-7.1768,-7.177,-7.1899,-7.1746,-7.1724,-7.1731,-7.1724,-7.1819,-7.1829,-7.1862,-7.2031,-7.2035,-7.1882,-7.1888,-7.1892,-7.1895,0,0,0,0,0,0,0,-7.1538,-7.1558,-7.1766,-7.1699,-7.1697,-7.1673,-7.1684,-7.1794,-7.1802,-7.1726,-7.1719,-7.1733,-7.1817,-7.1853,-7.1864,-7.2037,-7.1882,-7.189,-7.1896,-7.19,-7.2352,-7.2358,0,0,0,0,0,0,-7.1533,-7.1552,-7.1763,-7.177,-7.1605,-7.1683,-7.1695,-7.175,-7.1801,-7.1803,-7.1738,-7.1729,-7.1839,-7.1853,-7.1867,-7.2072,-7.1892,-7.1901,-7.1906,-7.2346,-7.2353,-7.236,0,0,0,0,0,0,-7.1527,-7.1553,-7.1759,-7.1659,-7.1684,-7.1694,-7.1757,-7.1755,-7.1791,-7.181,-7.1811,-7.1774,-7.1835,-7.1854,-7.1987,-7.2074,-7.1905,-7.1914,-7.2338,-7.2348,-7.2356,-7.2484,0,0,0,0,0,0,-7.1519,-7.1551,-7.1618,-7.1661,-7.1689,-7.1878,-7.1762,-7.1761,-7.1808,-7.1797,-7.1844,-7.1846,-7.1832,-7.1973,-7.1996,-7.2085,-7.1921,-7.233,-7.2342,-7.2353,-7.2472,-7.2497,-7.2518,0,0,0,0,0,-7.1509,-7.1649,-7.1622,-7.1648,-7.1773,-7.1883,-7.1899,-7.1882,-7.1816,-7.1882,-7.1895,-7.1844,-7.2062,-7.1988,-7.2013,-7.2105,-7.2325,-7.2339,-7.2353,-7.2462,-7.2492,-7.2517,0,0,0,0,0,0,-7.1614,-7.1654,-7.1624,-7.1783,-7.1831,-7.1867,-7.195,-7.1914,-7.198,-7.1967,-7.1942,-7.1953,-7.2093,-7.2113,-7.2029,-7.2276,-7.2182,-7.2202,-7.2257,-7.2285,-7.2308,-7.2298,-7.1929,0,0,0,0,0,-7.1656,-7.1743,-7.1773,-7.191,-7.1935,-7.194,-7.1987,-7.197,-7.2017,-7.2036,-7.2059,-7.2106,-7.2184,-7.2237,-7.231,-7.2476,-7.2483,-7.2552,-7.2575,-7.2594,-7.261,-7.2697,-7.2727,-7.2406,-7.2406,-7.2406,0,0,-7.1742,-7.1775,-7.1831,-7.1932,-7.1966,-7.2056,-7.1957,-7.2055,-7.2121,-7.2051,-7.2177,-7.2196,-7.2247,-7.2397,-7.2464,-7.2417,-7.2701,-7.2612,-7.2626,-7.2632,-7.2715,-7.2745,-7.2772,-7.2416,-7.2414,-7.2412,0,0,-7.1945,-7.198,-7.2096,-7.2134,-7.2189,-7.2191,-7.2219,-7.2263,-7.2272,-7.24,-7.2349,-7.2426,-7.2563,-7.2601,-7.2638,-7.2858,-7.2813,-7.2883,-7.3,-7.3086,-7.3111,-7.3133,-7.3209,-7.3237,-7.29,-7.29,-7.29,0,-7.2044,-7.2178,-7.2161,-7.2264,-7.2308,-7.2252,-7.2369,-7.2406,-7.2482,-7.2513,-7.2461,-7.2632,-7.2662,-7.2819,-7.2873,-7.2906,-7.2936,-7.2875,-7.3109,-7.3132,-7.3152,-7.3224,-7.3253,-7.2908,-7.2907,-7.2906,-7.2905,0,-7.2297,-7.2391,-7.2478,-7.2554,-7.2609,-7.2719,-7.2717,-7.2775,-7.2754,-7.2761,-7.2891,-7.2927,-7.3006,-7.3043,-7.3023,-7.3197,-7.3167,-7.3113,-7.3018,-7.3191,-7.3258,-7.3285,-7.2919,-7.2916,-7.2914,-7.2912,0,0,-7.2564,-7.2631,-7.2663,-7.2697,-7.2754,-7.2826,-7.2933,-7.3012,-7.3061,-7.3116,-7.3203,-7.3322,-7.3273,-7.3315,-7.3299,-7.3375,-7.3544,-7.3312,-7.3312,-7.3351,-7.3736,-7.3773,-7.3806,-7.3516,-7.3522,-7.3526,-7.373,0,-7.2767,-7.2954,-7.2942,-7.3117,-7.3202,-7.3151,-7.3244,-7.3289,-7.3299,-7.3372,-7.3383,-7.3466,-7.3397,-7.3422,-7.3495,-7.3508,-7.362,-7.3493,-7.3595,-7.3599,-7.358,-7.3841,-7.3881,-7.4072,-7.3757,-7.3761,-7.3764,0,-7.3027,-7.3092,-7.3277,-7.3321,-7.3356,-7.344,-7.3512,-7.3583,-7.3633,-7.3635,-7.3684,-7.3656,-7.3762,-7.3669,-7.3814,-7.3728,-7.377,-7.3783,-7.379,-7.3795,-7.3689,-7.3851,-7.4133,-7.4161,-7.3806,-7.3803,-7.38,0,-7.32,-7.3335,-7.3462,-7.3492,-7.3548,-7.3608,-7.3634,-7.3678,-7.3727,-7.3789,-7.382,-7.3895,-7.3934,-7.3992,-7.3984,-7.3917,-7.4132,-7.4038,-7.4134,-7.4135,-7.4179,-7.4175,-7.4468,-7.4212,-7.4211,-7.4211,-7.421,0,-7.3426,-7.3539,-7.354,-7.3618,-7.3744,-7.373,-7.3854,-7.3873,-7.3913,-7.3993,-7.3954,-7.4029,-7.4016,-7.4092,-7.4087,-7.4207,-7.4226,-7.4229,-7.4225,-7.4231,-7.423,-7.4254,-7.424,-7.4218,-7.4217,-7.4215,-7.4214,0,-7.3638,-7.3644,-7.3779,-7.3822,-7.3835,-7.3926,-7.3962,-7.4035,-7.4043,-7.4144,-7.4167,-7.418,-7.4266,-7.4266,-7.4364,-7.4361,-7.4507,-7.449,-7.4491,-7.4486,-7.4582,-7.4572,-7.4898,-7.494,-7.4659,-7.4662,-7.4664,0,-7.378,-7.3867,-7.392,-7.3971,-7.4001,-7.4084,-7.4134,-7.4124,-7.4177,-7.424,-7.4306,-7.4389,-7.4454,-7.4595,-7.4612,-7.4687,-7.467,-7.4779,-7.468,-7.4683,-7.4668,-7.4662,-7.4669,-7.4797,-7.48,-7.4803,-7.4805,0,-7.403,-7.4029,-7.4102,-7.4178,-7.4239,-7.4297,-7.4351,-7.4395,-7.4391,-7.4453,-7.4541,-7.4593,-7.4694,-7.4777,-7.4849,-7.4874,-7.4839,-7.4837,-7.4862,-7.4867,-7.4862,-7.4863,-7.454,-7.4828,-7.4826,-7.4824,-7.4823,-7.4822,-7.4209,-7.4283,-7.4332,-7.4416,-7.4456,-7.4508,-7.4578,-7.4596,-7.4671,-7.4753,-7.4743,-7.4841,-7.4889,-7.4983,-7.5015,-7.5091,-7.5052,-7.5091,-7.51,-7.5108,-7.5118,-7.4854,-7.5105,-7.5104,-7.5103,-7.5103,-7.5102,0,-7.4454,-7.4484,-7.4561,-7.4639,-7.4704,-7.4668,-7.4726,-7.4783,-7.4871,-7.4919,-7.4985,-7.5087,-7.5167,-7.5192,-7.5269,-7.5325,-7.5311,-7.5346,-7.534,-7.5346,-7.5149,-7.5118,-7.5356,-7.5356,-7.5356,-7.5356,-7.5356,-7.5356,-7.4589,-7.4713,-7.4718,-7.486,-7.4889,-7.4986,-7.5022,-7.5069,-7.5107,-7.5223,-7.529,-7.5307,-7.5345,-7.5425,-7.5497,-7.5502,-7.5531,-7.5572,-7.557,-7.5385,-7.536,-7.5335,-7.5305,-7.5579,-7.558,-7.576,-7.5762,-7.5763]},{"header":{"parameterUnit":"m.s-1","parameterCategory":1,"la1":30.2991,"la2":30.254,"lo1":-89.0895,"lo2":-89.0444,"dy":0.0017,"dx":0.0017,"nx":28,"ny":28,"refTime":"2024-03-01T09:00:00:Z","depth":0,"parameterNumber":3,"parameterNumberName":"V-component_of_WINDS"},"data":[0,0,0,0,0,0,0,0,0,0,0,0,0,0,0,0,0,0,0,0,0,0,0,0,0,0,0,0,0,0,0,0,0,0,0,0,0,0,0,0,0,0,0,0,0,0,0,0,0,0,0,0,0,0,0,0,0,0,4.8908,4.8911,0,4.9178,4.9181,4.9184,4.9186,4.9182,4.9179,4.9175,4.9454,4.9465,4.9475,0,0,0,0,0,0,0,0,0,0,0,0,0,4.8395,4.8404,4.8907,4.8911,4.8914,4.9177,4.9181,4.9185,4.9186,4.9182,4.9178,4.9174,4.9451,4.9463,4.9476,0,0,0,0,0,0,0,0,0,0,0,0,0,4.8637,4.8407,4.8907,4.8947,4.8953,4.9177,4.9181,4.9186,4.9187,4.9182,4.9177,4.9172,4.9447,4.9462,4.9478,4.9681,0,0,4.9527,4.9534,0,0,0,0,0,0,0,0,4.8623,4.8655,4.8938,4.8944,4.8952,4.9143,4.9103,4.9352,4.9188,4.9098,4.9175,4.9169,4.9355,4.9378,4.944,4.9694,4.9706,4.9528,4.9538,4.9545,4.9549,0,0,0,0,0,0,0,4.8606,4.8644,4.9015,4.8942,4.895,4.8952,4.898,4.915,4.9253,4.9106,4.9107,4.9138,4.9358,4.9425,4.9447,4.971,4.9528,4.9542,4.9552,4.9558,5.0142,5.0148,0,0,0,0,0,0,4.8581,4.863,4.9006,4.9023,4.8771,4.8965,4.8997,4.9087,4.9251,4.9271,4.9143,4.9137,4.94,4.9428,4.9457,4.9704,4.9545,4.956,4.9569,5.0136,5.0143,5.015,0,0,0,0,0,0,4.857,4.8615,4.8995,4.8827,4.8875,4.898,4.908,4.9095,4.9162,4.9278,4.9297,4.9192,4.9397,4.9434,4.9625,4.9713,4.9567,4.9581,5.0129,5.0139,5.0147,5.02,0,0,0,0,0,0,4.8555,4.8611,4.8688,4.8828,4.8884,4.9158,4.9086,4.9104,4.9189,4.9185,4.933,4.9349,4.9396,4.9601,4.964,4.9733,4.9594,5.0122,5.0133,5.0144,5.019,5.0209,5.0225,0,0,0,0,0,4.8537,4.8693,4.8692,4.8737,4.8983,4.9163,4.9195,4.9245,4.9196,4.9275,4.935,4.9344,4.9698,4.962,4.9665,4.9763,5.0116,5.013,5.0143,5.0183,5.0206,5.0225,0,0,0,0,0,0,4.8561,4.8712,4.8713,4.8919,4.9028,4.9163,4.9264,4.9268,4.9394,4.9385,4.9443,4.9476,4.9666,4.9734,4.9645,4.9968,4.9901,4.9924,4.9916,4.9939,4.9956,4.9934,4.9607,0,0,0,0,0,4.859,4.8723,4.8848,4.9018,4.9073,4.9159,4.9239,4.9269,4.9384,4.9431,4.952,4.9633,4.9769,4.9858,4.999,5.0201,5.0232,5.0291,5.0308,5.0322,5.0341,5.0456,5.0483,5.0194,5.0194,5.0193,0,0,4.8652,4.8751,4.8831,4.9025,4.9113,4.925,4.9198,4.9345,4.9447,4.9454,4.9638,4.9707,4.9838,5.0039,5.0132,5.0101,5.0428,5.0339,5.0349,5.0361,5.0472,5.05,5.0524,5.0203,5.0201,5.02,0,0,4.8834,4.8922,4.9073,4.9162,4.9296,4.9353,4.9389,4.9524,4.957,4.9756,4.9764,4.9886,5.012,5.0212,5.029,5.0507,5.0506,5.0549,5.0639,5.0751,5.0774,5.0794,5.087,5.0897,5.0567,5.0568,5.0568,0,4.8893,4.9099,4.915,4.9297,4.9382,4.9394,4.9547,4.9631,4.9802,4.986,4.9824,5.0118,5.0206,5.0428,5.0481,5.0544,5.0587,5.0532,5.0767,5.0788,5.0807,5.0881,5.0909,5.0572,5.0571,5.0571,5.057,0,4.9165,4.9307,4.9413,4.9576,4.9673,4.9823,4.9896,4.9989,5.001,5.0071,5.026,5.0367,5.052,5.0576,5.0599,5.0802,5.0778,5.0754,5.0688,5.0838,5.0908,5.0936,5.0578,5.0576,5.0575,5.0574,0,0,4.9368,4.9557,4.9595,4.9669,4.9818,4.993,5.008,5.0229,5.0307,5.0425,5.0551,5.0749,5.0727,5.0815,5.0849,5.0947,5.1111,5.0911,5.0915,5.0943,5.1339,5.1355,5.1387,5.1112,5.1117,5.1122,5.1328,0,4.9564,4.9829,4.988,5.0111,5.0243,5.0257,5.0388,5.0494,5.0555,5.0676,5.0743,5.0882,5.0844,5.0897,5.0995,5.107,5.1191,5.1056,5.123,5.1235,5.1194,5.1423,5.1441,5.163,5.1355,5.136,5.1364,0,4.9827,4.995,5.0194,5.0325,5.0383,5.0499,5.064,5.0756,5.0877,5.0914,5.1012,5.1035,5.1191,5.1119,5.1336,5.1243,5.1317,5.1365,5.1374,5.139,5.1307,5.1444,5.1692,5.1719,5.1407,5.1404,5.1401,0,4.9948,5.0176,5.0351,5.0414,5.0572,5.0653,5.0723,5.0838,5.0925,5.1048,5.1105,5.1246,5.1322,5.1431,5.1491,5.1433,5.1702,5.1635,5.1737,5.1736,5.1792,5.1787,5.2052,5.1843,5.1842,5.1842,5.1841,0,5.016,5.0309,5.0407,5.0514,5.0681,5.0739,5.0902,5.0971,5.1074,5.1195,5.1217,5.133,5.1404,5.1528,5.1576,5.1747,5.1782,5.1816,5.1827,5.1813,5.1809,5.1861,5.1849,5.1849,5.1848,5.1846,5.1845,0,5.0322,5.0394,5.0586,5.072,5.0757,5.0874,5.0988,5.1094,5.1155,5.1308,5.1347,5.1444,5.1591,5.1662,5.1845,5.1878,5.2071,5.2074,5.2029,5.2033,5.213,5.2119,5.2437,5.2481,5.2244,5.2246,5.2248,0,5.0452,5.0566,5.0712,5.0795,5.0866,5.0999,5.1087,5.1149,5.124,5.1386,5.1474,5.1622,5.1743,5.1978,5.2064,5.2204,5.221,5.2312,5.2231,5.2213,5.2209,5.2201,5.2212,5.2325,5.2328,5.2329,5.2331,0,5.0673,5.0704,5.0829,5.0969,5.1073,5.1186,5.1296,5.1363,5.1443,5.1544,5.1694,5.1788,5.1975,5.2121,5.2268,5.234,5.2349,5.2356,5.2387,5.2373,5.2341,5.2358,5.2067,5.2348,5.2346,5.2345,5.2344,5.2343,5.0822,5.0924,5.1042,5.1182,5.1272,5.1375,5.148,5.1555,5.1681,5.1837,5.1866,5.2026,5.2144,5.2341,5.2418,5.2544,5.2521,5.2565,5.2576,5.2586,5.259,5.2323,5.2571,5.257,5.257,5.257,5.257,0,5.1043,5.112,5.1248,5.1402,5.1512,5.1512,5.1634,5.1726,5.1866,5.1975,5.2094,5.2267,5.2409,5.2507,5.2652,5.2734,5.2741,5.2769,5.2763,5.2779,5.2603,5.2561,5.276,5.276,5.276,5.276,5.276,5.276,5.1171,5.1342,5.1387,5.1604,5.168,5.1836,5.1906,5.2001,5.2088,5.228,5.2398,5.2461,5.2566,5.2718,5.2849,5.2874,5.2925,5.2954,5.2978,5.2812,5.2791,5.2772,5.2733,5.2965,5.2965,5.3143,5.3145,5.3146]}]]